Voltar ao catálogo

SITRO-AIS-26

AtivoComunicaçõesPO
NORAD 59067·PAYLOAD·🇷🇺 Russia
Este nome de satélite ainda não foi confirmado por fontes oficiais.

Lançado Feb 29, 2024 de Vostochny Cosmodrome

Loading…

Próximas Passagens (próximas 24 horas)

TLE

AtualizadoSource: Space-Track

Época: Sep 14, 2026, 13:15 UTC

1 59067U 24039S   26257.55263501  .00002428  00000-0  18893-3 0  9992
2 59067  95.3817 296.3561 0144281  16.9266 343.6700 14.93815558138053

Acompanhe SITRO-AIS-26 em tempo real com AllMySat

Download on the App Store